Location: Courcelles
(49.2596°N, 1.7419°E)
Time: 03:02:42
(UTC+00:00)

Cosmos 407 Rocket - Pass Details

Date: 17 November 2025
Orbit: 740 x 780 km, 74.0° (Epoch: 04 December)

Event Time Altitude Azimuth Distance (km) Brightness Sun altitude
Rises 17:02:11 0° 182° (S) 3,207 7.0 -8.8°
Reaches altitude 10° 17:04:38 10° 176° (S) 2,280 6.2 -9.2°
Maximum altitude 17:09:31 44° 105° (ESE) 1,031 3.8 -9.9°
Drops below altitude 10° 17:14:23 10° 34° (NE) 2,273 5.5 -10.7°
Enters shadow 17:15:20 - 32° (NNE) 2,627 5.8 -10.8°
